Previsão horária em Semykino

Hoje, 6 Maio, Quinta-feira

Tempo Temperatura Precipitação Vento Pressão Humidade
00:00 +5°C° 0 mm 3 m/s 730 mmHg 65%
01:00 +5°C° 0 mm 3 m/s 730 mmHg 64%
02:00 +4°C° 0 mm 3 m/s 731 mmHg 70%
03:00 +3°C° 0 mm 3 m/s 731 mmHg 76%
04:00 +2°C° 0 mm 3 m/s 731 mmHg 83%
05:00 +3°C° 0 mm 3 m/s 731 mmHg 80%
06:00 +4°C° 0 mm 3 m/s 732 mmHg 77%
07:00 +4°C° 0 mm 3 m/s 732 mmHg 74%
08:00 +7°C° 0 mm 3 m/s 732 mmHg 66%
09:00 +8°C° 0 mm 3 m/s 732 mmHg 58%
10:00 +10°C° 0 mm 3 m/s 732 mmHg 51%
11:00 +11°C° 0 mm 4 m/s 732 mmHg 52%
12:00 +12°C° 0 mm 4 m/s 732 mmHg 53%
13:00 +13°C° 0 mm 5 m/s 732 mmHg 54%
14:00 +13°C° 0.1 mm 5 m/s 732 mmHg 58%
15:00 +12°C° 0.1 mm 5 m/s 733 mmHg 63%
16:00 +12°C° 0.1 mm 5 m/s 733 mmHg 67%
17:00 +12°C° 0 mm 4 m/s 733 mmHg 69%
18:00 +11°C° 0 mm 3 m/s 733 mmHg 71%
19:00 +11°C° 0 mm 3 m/s 733 mmHg 73%
20:00 +10°C° 0 mm 2 m/s 734 mmHg 77%
21:00 +10°C° 0 mm 1 m/s 734 mmHg 81%
22:00 +8°C° 0 mm 0 m/s 734 mmHg 85%
23:00 +9°C° 0 mm 1 m/s 734 mmHg 86%

Amanhã, 7 Maio, Sexta-feira

Tempo Temperatura Precipitação Vento Pressão Humidade
00:00 +8°C° 0 mm 1 m/s 734 mmHg 87%
01:00 +8°C° 0 mm 1 m/s 735 mmHg 88%
02:00 +7°C° 0 mm 2 m/s 735 mmHg 88%
03:00 +7°C° 0 mm 2 m/s 735 mmHg 89%
04:00 +7°C° 0 mm 2 m/s 735 mmHg 90%
05:00 +8°C° 0 mm 2 m/s 736 mmHg 87%
06:00 +9°C° 0 mm 2 m/s 736 mmHg 85%
07:00 +9°C° 0 mm 2 m/s 736 mmHg 82%
08:00 +11°C° 0 mm 3 m/s 736 mmHg 73%
09:00 +13°C° 0 mm 4 m/s 737 mmHg 64%
10:00 +15°C° 0 mm 5 m/s 737 mmHg 54%
11:00 +16°C° 0 mm 5 m/s 737 mmHg 51%
12:00 +16°C° 0 mm 6 m/s 737 mmHg 47%
13:00 +17°C° 0 mm 6 m/s 737 mmHg 44%
14:00 +17°C° 0 mm 6 m/s 737 mmHg 45%
15:00 +17°C° 0 mm 6 m/s 737 mmHg 47%
16:00 +17°C° 0 mm 6 m/s 737 mmHg 48%
17:00 +16°C° 0 mm 5 m/s 737 mmHg 51%
18:00 +15°C° 0 mm 5 m/s 737 mmHg 54%
19:00 +15°C° 0 mm 4 m/s 737 mmHg 58%
20:00 +14°C° 0 mm 4 m/s 738 mmHg 60%
21:00 +13°C° 0 mm 4 m/s 738 mmHg 63%
22:00 +12°C° 0 mm 4 m/s 738 mmHg 66%
23:00 +11°C° 0 mm 4 m/s 738 mmHg 66%

Depois de amanhã, 8 Maio, Sábado

Tempo Temperatura Precipitação Vento Pressão Humidade
00:00 +11°C° 0 mm 4 m/s 738 mmHg 66%
01:00 +11°C° 0 mm 4 m/s 738 mmHg 66%
02:00 +11°C° 0 mm 4 m/s 738 mmHg 67%
03:00 +11°C° 0 mm 4 m/s 738 mmHg 69%
04:00 +10°C° 0 mm 4 m/s 738 mmHg 71%
05:00 +11°C° 0 mm 4 m/s 738 mmHg 70%
06:00 +10°C° 0 mm 5 m/s 738 mmHg 69%
07:00 +10°C° 0 mm 5 m/s 738 mmHg 69%
08:00 +13°C° 0 mm 6 m/s 738 mmHg 62%
09:00 +15°C° 0 mm 7 m/s 738 mmHg 55%
10:00 +16°C° 0 mm 7 m/s 738 mmHg 48%
11:00 +17°C° 0 mm 8 m/s 737 mmHg 45%
12:00 +18°C° 0 mm 8 m/s 737 mmHg 42%
13:00 +18°C° 0 mm 9 m/s 737 mmHg 40%
14:00 +18°C° 0 mm 9 m/s 736 mmHg 41%
15:00 +18°C° 0 mm 8 m/s 736 mmHg 42%
16:00 +18°C° 0 mm 8 m/s 735 mmHg 44%
17:00 +18°C° 0 mm 7 m/s 735 mmHg 46%
18:00 +17°C° 0 mm 7 m/s 735 mmHg 49%
19:00 +16°C° 0 mm 7 m/s 734 mmHg 51%
20:00 +16°C° 0 mm 7 m/s 734 mmHg 50%
21:00 +16°C° 0 mm 7 m/s 734 mmHg 48%
22:00 +15°C° 0 mm 7 m/s 734 mmHg 47%
23:00 +14°C° 0.2 mm 7 m/s 734 mmHg 58%

9 Maio, Domingo

Tempo Temperatura Precipitação Vento Pressão Humidade
00:00 +13°C° 0.2 mm 6 m/s 734 mmHg 69%
01:00 +12°C° 0.2 mm 5 m/s 734 mmHg 81%
02:00 +10°C° 0.2 mm 5 m/s 734 mmHg 83%
03:00 +10°C° 0.2 mm 5 m/s 734 mmHg 86%
04:00 +11°C° 0.2 mm 4 m/s 735 mmHg 88%

10 Maio, Segunda-feira

Tempo Temperatura Precipitação Vento Pressão Humidade

11 Maio, Terça-feira

Tempo Temperatura Precipitação Vento Pressão Humidade
Mostrar mais

Necessitamos do seu Consentimento

A Meteoprog e os seus Fornecedores de Serviços podem armazenar e aceder a dados pessoais como cookies, identificadores do dispositivo ou outras tecnologias semelhantes existentes no seu dispositivo e processar estes dados para personalizar conteúdos e anúncios, assim como funcionalidades nas redes sociais e análise de tráfego.

  • Armazenar e/ou aceder a informações no seu dispositivo

    Os cookies, identificadores do dispositivo ou outras informações podem ser armazenados ou acedidos no seu dispositivo, para os fins acima indicados.

  • Anúncios e conteúdos personalizados, medição de anúncios e conteúdos, dados sobre o público-alvo e desenvolvimento de produtos

    Os anúncios e os conteúdos podem ser personalizados com base num perfil. Podem ser adicionados dados adicionais para uma maior personalização dos anúncios e dos conteúdos. A eficácia dos anúncios e dos conteúdos pode ser medida. Podem ser obtidas informações sobre o público que visualizou os anúncios e os conteúdos. Estes dados podem ser usados para desenvolver ou melhorar sistemas, softwares ou a experiência do utilizador.

Ao clicar em "Eu concordo”, permitirá o uso de cookies, identificadores do dispositivo e web beacons mencionados ou outras tecnologias semelhantes. As configurações do navegador do seu dispositivo podem ser alteradas.

Para certos fins, podem ser invocados interesses legítimos ao invés de consentimento. Pode ler mais informação sobre este assunto na nossa Política de Privacidade e Cookies.